Miscellaneous Local Product
Issued by NWS Hastings, NE

Home | Current Version | Previous Version | Graphics & Text | Print | Product List | Glossary On
Versions: 1 2 3 4 5 6 7 8 9 10 11 12 13 14 15 16 17 18 19 20 21 22 23 24 25 26 27 28 29 30 31 32 33 34 35 36 37 38 39 40 41 42 43 44 45 46 47 48 49 50
000
AXUS43 KGID 051402
MISGRI

GID CWA HOURLY WEATHER ROUNDUP
NATIONAL WEATHER SERVICE HASTINGS NE
800 AM CST THU MAR 05 2015

NOTE: "FAIR" INDICATES FEW OR NO CLOUDS BELOW 12,000 FEET WITH NO
SIGNIFICANT WEATHER AND/OR OBSTRUCTIONS TO VISIBILITY.

...SOUTH CENTRAL NEBRASKA...

CITY           SKY/WX    TMP DP  RH WIND       PRES   REMARKS
GRAND ISLAND   PTCLDY     9   1  70 S9        30.45R WCI  -4
HASTINGS       PTCLDY     8  -2  63 S8        30.43R WCI  -4
KEARNEY        PTCLDY     7   0  72 S6        30.41R WCI  -3
ORD            PTCLDY     3  -2  79 CALM      30.39R
YORK           SUNNY      1   0  92 S5        30.46R WCI  -8
AURORA         SUNNY      6  -2  68 S6        30.44S WCI  -4
LEXINGTON      PTCLDY     8   2  78 S3        30.39R
HOLDREGE       MOCLDY     5  -2  71 S8        30.39R WCI  -8
HEBRON         SUNNY      7   1  75 CALM      30.51R

...NEBRASKA PANHANDLE...

CITY           SKY/WX    TMP DP  RH WIND       PRES   REMARKS
CHADRON        PTCLDY    -1  -7  75 SW7       30.19S WCI -14
ALLIANCE       CLEAR      4  -1  80 W7        30.16S WCI  -8
SCOTTSBLUFF    PTCLDY     8   3  80 NW6       30.19S WCI  -2
SIDNEY         CLEAR     13   5  70 W9        30.19S WCI   1

...WESTERN AND NORTH CENTRAL NEBRASKA...

CITY           SKY/WX    TMP DP  RH WIND       PRES   REMARKS
VALENTINE      PTCLDY     2  -5  72 CALM      30.26F
AINSWORTH      PTCLDY     8   1  75 S13       30.28F WCI  -8
ONEILL         PTCLDY     1  -3  82 S7        30.36S WCI -11
BROKEN BOW     PTCLDY     5  -2  72 S5        30.35R WCI  -4
IMPERIAL         N/A      7   2  80 S5        30.28S WCI  -2
NORTH PLATTE   PTCLDY     5  -1  76 E3        30.32S
MCCOOK         CLEAR     10   2  69 E3        30.35S

...EASTERN NEBRASKA...

CITY           SKY/WX    TMP DP  RH WIND       PRES   REMARKS
NORFOLK        PTSUNNY    3  -3  76 CALM      30.45R
SO SIOUX CITY  MOSUNNY    1  -5  75 CALM      30.53R
TEKAMAH        SUNNY      3  -4  72 CALM      30.55R
COLUMBUS       MOSUNNY    3  -6  66 CALM      30.49R
ALBION         MOCLDY    -2  -8  77 CALM      30.42S
OMAHA EPPLEY   SUNNY      8   1  73 CALM      30.56R
OFFUTT AFB     SUNNY      6   0  76 S2        30.55R
MILLARD        SUNNY      6   1  80 CALM      30.54R
LINCOLN        SUNNY      5  -1  76 CALM      30.54R
NEBRASKA CITY  SUNNY      5  -4  64 CALM      30.54R
BEATRICE       SUNNY      5   0  77 CALM      30.53R
FALLS CITY     SUNNY      8   1  73 CALM      30.57R

...NORTHERN KANSAS...

CITY           SKY/WX    TMP DP  RH WIND       PRES   REMARKS
GOODLAND       CLEAR     16   9  74 W10       30.27F WCI   4
HILL CITY      PTCLDY     8   1  73 CALM      30.40S
NORTON         SUNNY      9   0  66 CALM      30.38S
PHILLIPSBURG   CLEAR     10   3  72 NE5       30.45R WCI   2
SMITH CENTER   CLEAR      9   1  72 E10       30.46R WCI  -6
BELOIT         SUNNY     12   3  67 E9        30.49R WCI   0
HAYS           CLEAR     10  -2  56 CALM      30.41R
RUSSELL        SUNNY     14   6  70 SE9       30.42S WCI   2
CONCORDIA      SUNNY     12   4  70 SE7       30.49S WCI   1
SALINA         SUNNY     15   4  61 E9        30.51S WCI   3
TOPEKA         SUNNY     13   3  64 CALM      30.58R



USA.gov is the U.S. government's official web portal to all federal, state and local government web resources and services.